Weather Roundup
Issued by NWS

Home | Current Version | Previous Version | Graphics & Text | Print | Product List | Glossary Off
Versions: 1 2 3 4 5 6 7 8 9 10 11 12 13 14 15 16 17 18 19 20 21 22 23 24 25 26 27 28 29 30 31 32 33 34 35 36 37 38 39 40 41 42 43 44 45 46 47 48 49 50

000
NZUS93 KARX 311110
HRRWXR

CURRENT HOURLY OBSERVATIONS ACROSS
MUCH OF THE UPPER MISSISSIPPI VALLEY
NATIONAL WEATHER SERVICE LA CROSSE WI
600 AM CDT FRI JUL 31 2015


...SOUTHEAST MINNESOTA...


CITY           SKY/WX    TMP DP  RH WIND       PRES   REMARKS
ROCHESTER      CLEAR     62  59  90 W12       30.08R
ROCHESTER/MAYO FAIR      65  59  82 W10       30.07R
WINONA         CLEAR     61  59  94 CALM      30.02S
AUSTIN         CLEAR     66  61  82 W9        30.09R
ALBERT LEA     FAIR      64  61  88 W6        30.10R
DODGE CENTER   CLEAR     63  59  88 W8        30.08S
PRESTON        CLEAR     62  57  84 W9        30.07S
OWATONNA       CLEAR     61  57  88 CALM      30.08S
FARIBAULT      CLEAR     61  57  88 W5        30.08R
$$

...ELSEWHERE IN MINNESOTA...


CITY           SKY/WX    TMP DP  RH WIND       PRES   REMARKS
MINNEAPOLIS    CLEAR     66  55  67 W8        30.05R
INTNL FALLS    CLEAR     54  53  97 W8        29.92R
DULUTH         CLEAR     60  52  74 W9        29.95R
RED WING       CLEAR     61  59  94 W5        30.02S
REDWOOD FALLS  CLEAR     60  56  86 NW7       30.11R
MANKATO        CLEAR     63  55  77 W7        30.10R
WORTHINGTON    MOCLDY    61  54  77 W3        30.14S
FAIRMONT       CLEAR     63  54  72 CALM      30.11R
$$

...SOUTHWEST WISCONSIN...


CITY           SKY/WX    TMP DP  RH WIND       PRES   REMARKS
LA CROSSE      CLEAR     63  60  90 SE6       30.01S
PRAIRIE DU CHI PTCLDY    65  61  85 CALM      30.04R
BOSCOBEL       CLEAR     62  59  90 SW3       30.03S
LONE ROCK      CLEAR     57  55  93 CALM      30.03R
PLATTEVILLE    PTCLDY    64  63  97 CALM      30.05R
FORT MC COY    CLEAR     55  52  92 CALM      30.01S
CAMP DOUGLAS   CLEAR     59  59 100 W7        29.99S
VIROQUA        FAIR      60  60 100 SW7       30.04S
WIS DELLS      CLEAR     61  55  81 CALM      30.00S
$$

...ELSEWHERE IN WISCONSIN...


CITY           SKY/WX    TMP DP  RH WIND       PRES   REMARKS
MILWAUKEE      PTCLDY    68  56  65 W5        29.98S
MADISON        PTCLDY    68  58  70 NW5       30.00R
GREEN BAY      CLEAR     64  58  80 W8        29.92F
EAU CLAIRE     CLEAR     62  56  80 W8        29.99R
BLACK RVR FLS  FAIR      54  54 100 CALM      29.99S FOG
MEDFORD        CLEAR     59  55  88 W7        29.97R
WAUSAU         CLEAR     64  56  75 NW12      29.93S
WIS RAPIDS     CLEAR     62  57  83 W7        29.98F
MARSHFIELD     CLEAR     62  55  77 W6        29.97S
RICE LAKE      CLEAR     59  54  82 W6        30.01R
$$

...NORTHEAST IOWA...


CITY           SKY/WX    TMP DP  RH WIND       PRES   REMARKS
DECORAH        PTCLDY    63  63 100 SW5       30.06R
MASON CITY     CLEAR     63  61  93 W8        30.11S
CHARLES CITY   CLEAR     64  64 100 W6        30.09R
OELWEIN          N/A     64  64 100 W5        30.09R
$$

...ELSEWHERE IN IOWA...


CITY           SKY/WX    TMP DP  RH WIND       PRES   REMARKS
DES MOINES     MOCLDY    69  63  81 SW5       30.11R
IOWA CITY      CLEAR     66  63  90 W3        30.09R
FORT DODGE     MOCLDY    64  61  88 SW3       30.13S
$$

...NORTHERN ILLINOIS...


CITY           SKY/WX    TMP DP  RH WIND       PRES   REMARKS
CHICAGO-OHARE  PTCLDY    67  59  75 W8        30.01S
CHICAGO-MIDWAY PTCLDY    71  57  61 SW6       30.01F
MOLINE         CLEAR     66  62  87 SW6       30.06S
ROCKFORD       MOCLDY    63  58  83 S7        30.03F
PEORIA         CLEAR     70  63  78 W5        30.08S
$$

NOTE: "FAIR" INDICATES FEW OR NO CLOUDS BELOW 12,000 FEET WITH NO
SIGNIFICANT WEATHER AND/OR OBSTRUCTIONS TO VISIBILITY. WIND
SPEEDS ARE IN MILES-PER-HOUR.



USA.gov is the U.S. government's official web portal to all federal, state and local government web resources and services.